Date String (YYYY-MM-DD hh:mm:ss) UTC,Instrument flags,Ambient pressure (hPa),Sample flow (lpm),Bypass flow (lpm),Sample temperature (°C),Ambient temperature (°C),ASC tube jacket temperature (°C),LED temperature (°C),Box temperature (°C),Sample RH (%),Span deviation,Mass concentration (μg/m³),Mass concentration (μg/m³),Mass concentration (μg/m³)
DateTimeUTC,F1_M11,P_M11,Q1_M11,Q2_M11,T1_M11,T2_M11,T3_M11,T4_M11,T5_M11,U1_M11,ZSPAN_M11,X0_M11,X2_M11,X1_M11
2022-02-09 00:00:00,,0828.2,5.01,0.00,26.6,26.0,00.0,35.5,28.5,05.7,0000.0,0006.16,0001.80,0001.11
2022-02-09 00:01:00,,0828.2,4.99,0.00,26.7,26.0,00.0,35.5,28.5,05.3,0000.0,0005.78,0001.74,0001.06
2022-02-09 00:02:00,,0828.3,4.99,0.00,26.6,26.0,00.0,35.5,28.5,05.5,0000.0,0005.86,0001.71,0001.02
2022-02-09 00:03:00,,0828.3,4.99,0.00,26.6,26.0,00.0,35.5,28.5,05.5,0000.0,0005.94,0001.62,0000.97
2022-02-09 00:04:00,,0828.4,4.99,0.00,26.6,26.0,00.0,35.5,28.5,05.6,0000.0,0004.91,0001.52,0000.92
2022-02-09 00:05:00,,0828.1,5.01,0.00,26.6,26.0,00.0,35.5,28.4,05.6,0000.0,0003.59,0001.42,0000.88
2022-02-09 00:06:00,,0828.4,5.00,0.00,26.6,26.0,00.0,35.5,28.4,05.6,0000.0,0004.30,0001.36,0000.86
2022-02-09 00:07:00,,0828.1,5.01,0.00,26.6,26.0,00.0,35.5,28.4,05.3,0000.0,0004.82,0001.30,0000.85
2022-02-09 00:08:00,,0828.1,5.01,0.00,26.6,26.0,00.0,35.5,28.4,05.4,0000.0,0004.61,0001.20,0000.84
2022-02-09 00:09:00,,0828.1,5.00,0.00,26.6,26.0,00.0,35.5,28.4,05.4,0000.0,0004.50,0001.16,0000.83
2022-02-09 00:10:00,,0828.0,4.99,0.00,26.6,26.0,00.0,35.6,28.5,05.4,0000.0,0004.44,0001.13,0000.81
2022-02-09 00:11:00,,0828.0,4.99,0.00,26.7,26.0,00.0,35.6,28.5,05.5,0000.0,0004.40,0001.11,0000.80
2022-02-09 00:12:00,,0828.1,5.00,0.00,26.7,26.0,00.0,35.6,28.5,05.2,0000.0,0004.32,0001.07,0000.78
2022-02-09 00:13:00,,0828.1,5.01,0.00,26.7,26.0,00.0,35.6,28.4,05.2,0000.0,0003.69,0001.00,0000.76
2022-02-09 00:14:00,,0828.1,5.01,0.00,26.7,26.0,00.0,35.6,28.5,05.3,0000.0,0003.01,0000.94,0000.74
2022-02-09 00:15:00,,0828.1,4.99,0.00,26.7,26.0,00.0,35.6,28.5,05.2,0000.0,0002.98,0000.93,0000.73
2022-02-09 00:16:00,,0828.1,5.00,0.00,26.7,26.0,00.0,35.6,28.5,05.1,0000.0,0002.95,0000.92,0000.72
2022-02-09 00:17:00,,0828.1,5.00,0.00,26.7,26.0,00.0,35.6,28.5,05.3,0000.0,0002.20,0000.89,0000.70
2022-02-09 00:18:00,,0828.1,5.00,0.00,26.7,26.0,00.0,35.6,28.5,05.3,0000.0,0001.25,0000.89,0000.68
2022-02-09 00:19:00,,0828.1,5.00,0.00,26.7,26.0,00.0,35.6,28.5,05.4,0000.0,0001.34,0000.91,0000.68
2022-02-09 00:20:00,,0828.2,5.02,0.00,26.7,26.0,00.0,35.6,28.5,05.6,0000.0,0001.55,0000.94,0000.68
2022-02-09 00:21:00,,0828.1,5.00,0.00,26.7,26.0,00.0,35.6,28.5,05.5,0000.0,0001.59,0000.96,0000.68
2022-02-09 00:22:00,,0828.1,5.00,0.00,26.7,26.0,00.0,35.6,28.5,05.3,0000.0,0001.65,0000.99,0000.68
2022-02-09 00:23:00,,0828.2,4.99,0.00,26.7,26.0,00.0,35.6,28.5,05.2,0000.0,0001.64,0000.98,0000.68
2022-02-09 00:24:00,,0828.4,5.02,0.00,26.7,26.0,00.0,35.6,28.5,05.3,0000.0,0001.71,0000.98,0000.68
2022-02-09 00:25:00,,0828.3,5.00,0.00,26.7,26.0,00.0,35.6,28.5,05.5,0000.0,0003.06,0000.99,0000.69
2022-02-09 00:26:00,,0828.3,4.99,0.00,26.7,26.0,00.0,35.6,28.5,05.4,0000.0,0003.14,0001.00,0000.69
2022-02-09 00:27:00,,0828.3,5.00,0.00,26.7,26.0,00.0,35.6,28.5,05.4,0000.0,0003.17,0000.98,0000.69
2022-02-09 00:28:00,,0828.1,5.00,0.00,26.7,26.0,00.0,35.6,28.5,05.2,0000.0,0003.18,0000.98,0000.70
2022-02-09 00:29:00,,0828.1,5.01,0.00,26.7,26.0,00.0,35.6,28.5,05.3,0000.0,0003.39,0000.98,0000.71
2022-02-09 00:30:00,,0828.2,5.01,0.00,26.7,26.0,00.0,35.6,28.5,05.4,0000.0,0004.04,0000.98,0000.71
2022-02-09 00:31:00,,0828.3,4.99,0.00,26.7,26.0,00.0,35.6,28.5,05.3,0000.0,0003.80,0000.94,0000.71
2022-02-09 00:32:00,,0828.3,5.00,0.00,26.7,26.0,00.0,35.6,28.5,05.4,0000.0,0003.84,0000.96,0000.72
2022-02-09 00:33:00,,0828.1,5.00,0.00,26.7,26.0,00.0,35.6,28.5,05.2,0000.0,0003.83,0000.95,0000.71
2022-02-09 00:34:00,,0828.2,5.00,0.00,26.7,26.0,00.0,35.6,28.4,05.2,0000.0,0003.92,0000.93,0000.70
2022-02-09 00:35:00,,0828.2,4.99,0.00,26.6,26.0,00.0,35.6,28.4,05.2,0000.0,0003.87,0000.92,0000.69
2022-02-09 00:36:00,,0828.1,5.01,0.00,26.6,25.9,00.0,35.6,28.4,05.2,0000.0,0002.56,0000.89,0000.67
2022-02-09 00:37:00,,0828.1,5.00,0.00,26.6,25.9,00.0,35.6,28.4,05.1,0000.0,0002.49,0000.88,0000.67
2022-02-09 00:38:00,,0828.1,5.00,0.00,26.6,25.9,00.0,35.6,28.4,04.9,0000.0,0002.51,0000.89,0000.66
2022-02-09 00:39:00,,0828.1,5.01,0.00,26.6,25.9,00.0,35.6,28.3,04.8,0000.0,0002.45,0000.87,0000.64
2022-02-09 00:40:00,,0828.0,5.00,0.00,26.6,25.8,00.0,35.6,28.3,04.9,0000.0,0002.29,0000.85,0000.62
2022-02-09 00:41:00,,0828.0,4.99,0.00,26.5,25.8,00.0,35.6,28.3,04.9,0000.0,0001.72,0000.86,0000.61
2022-02-09 00:42:00,,0828.1,5.00,0.00,26.5,25.7,00.0,35.6,28.3,05.1,0000.0,0001.76,0000.88,0000.61
2022-02-09 00:43:00,,0828.1,5.01,0.00,26.5,25.7,00.0,35.6,28.3,05.1,0000.0,0001.84,0000.86,0000.60
2022-02-09 00:44:00,,0828.1,5.00,0.00,26.5,25.7,00.0,35.5,28.2,05.0,0000.0,0001.92,0000.86,0000.59
2022-02-09 00:45:00,,0828.0,5.00,0.00,26.5,25.7,00.0,35.5,28.2,05.0,0000.0,0001.96,0000.87,0000.60
2022-02-09 00:46:00,,0828.0,5.00,0.00,26.5,25.7,00.0,35.5,28.2,04.9,0000.0,0001.92,0000.90,0000.60
2022-02-09 00:47:00,,0827.9,5.02,0.00,26.5,25.7,00.0,35.5,28.2,05.0,0000.0,0002.28,0000.91,0000.59
2022-02-09 00:48:00,,0827.9,5.01,0.00,26.4,25.6,00.0,35.5,28.2,04.7,0000.0,0002.26,0000.90,0000.59
2022-02-09 00:49:00,,0827.9,5.00,0.00,26.4,25.6,00.0,35.5,28.2,04.9,0000.0,0002.20,0000.90,0000.60
2022-02-09 00:50:00,,0827.9,4.99,0.00,26.4,25.6,00.0,35.5,28.1,04.8,0000.0,0002.25,0000.92,0000.60
2022-02-09 00:51:00,,0827.9,5.00,0.00,26.4,25.5,00.0,35.5,28.1,04.8,0000.0,0002.20,0000.94,0000.61
2022-02-09 00:52:00,,0827.9,5.01,0.00,26.4,25.5,00.0,35.4,28.1,05.0,0000.0,0002.16,0000.92,0000.60
2022-02-09 00:53:00,,0828.0,5.00,0.00,26.3,25.5,00.0,35.4,28.1,04.7,0000.0,0002.18,0000.91,0000.59
2022-02-09 00:54:00,,0827.9,4.99,0.00,26.3,25.4,00.0,35.4,28.0,04.8,0000.0,0002.03,0000.88,0000.59
2022-02-09 00:55:00,,0827.9,5.01,0.00,26.3,25.4,00.0,35.4,28.0,04.8,0000.0,0001.87,0000.86,0000.59
2022-02-09 00:56:00,,0827.9,5.01,0.00,26.2,25.3,00.0,35.4,27.9,04.7,0000.0,0001.74,0000.84,0000.59
2022-02-09 00:57:00,,0827.9,4.99,0.00,26.2,25.3,00.0,35.3,27.9,04.7,0000.0,0001.68,0000.84,0000.59
2022-02-09 00:58:00,,0827.9,5.01,0.00,26.2,25.3,00.0,35.3,27.9,04.9,0000.0,0001.32,0000.83,0000.58
2022-02-09 00:59:00,,0827.8,4.99,0.00,26.1,25.2,00.0,35.3,27.8,04.7,0000.0,0001.36,0000.85,0000.58
